Total_Precipitation_Accumulation
1.79 2.01 2.18 2.39 2.67 2.91 3.07 3.31 3.56 3.92 4.20 4.58 4.89 5.10 5.30 5.52 5.59 5.49 5.40 5.37 5.37 5.51 5.59 5.32 5.30 5.19 5.06 4.84 4.80 4.70 4.48 4.20 4.18 4.07 3.63 3.03 2.63 2.52 2.41 2.43 2.64 2.65 2.53
1.78 2.15 2.51 2.92 3.14 3.31 3.38 3.59 3.94 4.27 4.44 4.81 5.32 5.79 5.99 6.12 6.12 6.09 6.19 6.21 6.21 6.37 6.42 6.40 6.12 5.90 5.62 5.11 4.76 4.64 4.41 4.04 4.16 4.22 4.19 3.48 2.99 2.48 2.03 2.10 2.15 2.23 2.47
1.97 2.27 2.75 3.10 3.18 3.28 3.41 3.58 4.09 4.57 5.04 5.45 6.00 6.48 6.79 6.81 6.65 6.33 6.41 6.52 6.35 6.42 6.61 6.59 6.36 6.00 5.44 4.87 4.71 4.68 4.53 4.25 4.18 4.13 4.37 3.79 3.23 2.79 2.30 1.99 1.88 2.02 2.17
1.92 2.28 2.57 2.86 3.00 3.13 3.40 3.65 4.08 4.77 5.30 5.60 6.22 6.88 7.11 7.30 7.33 7.08 6.75 6.54 6.29 6.16 6.10 5.94 5.54 5.17 4.82 4.51 4.35 4.41 4.32 4.31 4.10 4.02 3.76 3.51 3.21 2.98 2.61 2.14 1.91 1.96 2.02
1.74 2.10 2.30 2.55 2.89 3.01 3.13 3.38 3.96 4.62 5.36 5.98 6.48 7.07 7.55 7.74 7.64 7.19 6.72 6.18 5.82 5.37 4.93 4.58 4.38 4.31 4.17 3.97 3.83 3.84 3.75 3.58 3.48 3.49 3.48 3.44 3.17 2.85 2.67 2.39 2.17 2.12 1.94
1.57 1.75 2.01 2.25 2.58 2.69 2.94 3.24 3.68 4.40 5.13 5.73 6.30 6.78 7.18 7.29 6.97 6.42 5.88 5.52 5.12 4.58 4.02 3.73 3.54 3.43 3.28 3.09 2.99 2.99 3.01 3.11 3.17 3.27 3.29 3.25 3.18 2.97 2.93 2.74 2.50 2.36 2.20
1.44 1.68 1.88 2.19 2.38 2.48 2.75 3.12 3.65 4.28 4.69 5.16 5.68 6.02 6.23 6.35 6.32 5.98 5.49 5.10 4.62 4.15 3.65 3.23 3.00 2.75 2.56 2.49 2.52 2.51 2.49 2.63 2.77 2.88 2.97 2.97 2.88 2.81 2.88 2.99 2.76 2.50 2.32
1.58 1.82 1.97 2.20 2.42 2.48 2.66 3.00 3.46 3.88 4.09 4.29 4.72 5.08 5.21 5.25 5.12 4.90 4.50 4.18 3.84 3.52 3.22 2.81 2.48 2.25 2.11 2.01 2.11 2.11 2.13 2.22 2.36 2.46 2.68 2.67 2.58 2.67 2.75 2.90 3.01 2.93 2.59
1.66 1.86 2.02 2.16 2.34 2.42 2.58 2.74 2.99 3.19 3.40 3.58 3.79 3.99 4.02 3.94 3.78 3.59 3.33 3.13 2.93 2.64 2.50 2.31 2.13 2.00 1.95 1.94 1.94 1.89 1.88 2.02 2.14 2.20 2.36 2.49 2.49 2.55 2.61 2.74 2.87 2.96 2.77
1.68 1.84 1.93 2.03 2.10 2.10 2.19 2.27 2.49 2.65 2.84 2.94 2.98 2.90 2.90 2.85 2.66 2.47 2.38 2.23 2.05 1.95 1.95 1.90 1.91 1.87 1.80 1.83 1.88 1.77 1.76 1.90 1.94 1.94 2.06 2.17 2.24 2.37 2.44 2.54 2.66 2.72 2.67
1.59 1.65 1.71 1.75 1.76 1.72 1.74 1.83 2.00 2.24 2.37 2.39 2.46 2.39 2.30 2.13 2.01 1.86 1.79 1.72 1.65 1.64 1.65 1.69 1.72 1.74 1.73 1.74 1.74 1.64 1.64 1.71 1.88 1.98 2.03 2.07 2.11 2.20 2.19 2.21 2.27 2.38 2.54
1.58 1.52 1.50 1.52 1.53 1.53 1.53 1.61 1.69 1.82 1.89 1.97 1.98 1.96 1.92 1.84 1.73 1.63 1.55 1.57 1.59 1.56 1.58 1.58 1.56 1.62 1.72 1.76 1.68 1.57 1.53 1.62 1.74 1.87 1.98 1.95 1.92 1.97 2.04 2.10 2.08 2.12 2.28
1.64 1.61 1.57 1.51 1.53 1.65 1.66 1.56 1.60 1.65 1.65 1.71 1.70 1.70 1.81 1.79 1.70 1.67 1.67 1.66 1.61 1.57 1.52 1.45 1.46 1.52 1.58 1.59 1.55 1.48 1.47 1.50 1.56 1.65 1.68 1.71 1.75 1.71 1.74 1.79 1.85 1.84 1.87
1.72 1.77 1.83 1.77 1.67 1.68 1.82 1.73 1.64 1.60 1.66 1.71 1.65 1.53 1.54 1.61 1.67 1.64 1.60 1.54 1.49 1.50 1.54 1.50 1.43 1.40 1.34 1.25 1.21 1.22 1.28 1.30 1.30 1.36 1.35 1.38 1.49 1.54 1.61 1.57 1.63 1.69 1.82
1.87 1.86 1.81 1.81 1.71 1.67 1.80 1.85 1.75 1.61 1.81 1.83 1.73 1.61 1.52 1.55 1.61 1.57 1.51 1.44 1.38 1.28 1.34 1.40 1.33 1.19 1.04 0.91 0.92 0.98 1.01 1.09 1.13 1.16 1.10 1.06 1.21 1.35 1.35 1.26 1.39 1.56 1.74
2.04 2.02 1.98 1.99 1.94 1.83 1.88 2.00 1.91 1.75 1.82 1.88 1.97 1.97 1.86 1.81 1.75 1.59 1.49 1.48 1.48 1.41 1.31 1.25 1.20 1.09 0.87 0.86 0.83 0.91 1.05 1.14 1.11 1.15 1.14 1.03 1.06 1.11 1.08 1.03 1.17 1.39 1.48
2.33 2.30 2.27 2.23 2.23 2.19 2.13 2.11 1.99 1.85 1.85 1.96 2.03 2.00 1.93 1.88 1.82 1.60 1.48 1.51 1.52 1.49 1.41 1.26 1.21 1.18 1.09 0.95 0.81 0.82 0.95 1.07 1.09 1.11 1.12 0.97 0.90 1.01 1.04 1.05 1.05 1.14 1.16
2.33 2.36 2.46 2.38 2.35 2.24 2.17 2.08 1.96 1.95 1.98 2.02 2.00 1.92 1.77 1.74 1.68 1.60 1.58 1.54 1.48 1.45 1.39 1.29 1.19 1.11 0.92 0.78 0.68 0.68 0.80 0.99 1.07 1.08 1.11 1.14 1.06 0.96 0.98 0.98 1.02 1.10 1.16
2.37 2.35 2.34 2.26 2.24 2.18 2.13 2.05 1.98 1.98 1.96 1.94 1.85 1.76 1.64 1.64 1.54 1.51 1.46 1.42 1.35 1.32 1.26 1.15 1.09 1.05 0.91 0.70 0.58 0.63 0.79 0.98 1.02 1.01 1.00 1.06 1.06 1.01 0.93 0.97 1.10 1.18 1.21
2.14 2.06 1.90 1.80 1.95 2.09 2.10 2.03 1.94 1.92 1.89 1.68 1.48 1.40 1.43 1.50 1.38 1.30 1.26 1.23 1.24 1.22 1.12 1.01 1.02 1.03 0.98 0.83 0.69 0.69 0.78 0.93 0.96 1.00 1.00 0.94 0.94 0.96 0.93 0.98 1.12 1.19 1.20
1.66 1.58 1.54 1.60 1.74 1.82 1.85 1.86 1.78 1.78 1.67 1.50 1.39 1.35 1.29 1.27 1.24 1.24 1.24 1.17 1.12 1.17 1.17 1.13 1.06 1.00 0.90 0.76 0.66 0.67 0.66 0.79 0.88 0.92 0.97 0.94 0.89 0.86 0.90 1.01 1.06 1.10 1.09
1.32 1.26 1.34 1.45 1.54 1.51 1.50 1.59 1.60 1.55 1.46 1.42 1.37 1.40 1.29 1.10 1.15 1.33 1.29 1.24 1.26 1.25 1.20 1.15 1.07 0.91 0.81 0.67 0.59 0.60 0.63 0.69 0.84 0.94 0.95 0.89 0.86 0.84 0.88 0.96 1.02 1.03 1.10
1.08 1.13 1.14 1.24 1.38 1.42 1.45 1.49 1.45 1.37 1.36 1.42 1.41 1.32 1.22 1.27 1.26 1.31 1.31 1.25 1.22 1.13 1.01 0.96 0.92 0.82 0.72 0.62 0.54 0.56 0.61 0.69 0.76 0.82 0.84 0.80 0.82 0.85 0.98 1.04 1.07 1.15 1.34
0.94 1.03 1.08 1.10 1.21 1.25 1.28 1.36 1.30 1.28 1.40 1.49 1.46 1.32 1.20 1.18 1.20 1.22 1.20 1.11 1.05 1.00 0.92 0.86 0.82 0.78 0.75 0.67 0.61 0.60 0.60 0.64 0.70 0.73 0.77 0.84 0.89 0.95 1.08 1.21 1.31 1.35 1.39
0.97 1.03 1.11 1.11 1.07 1.05 1.10 1.08 1.10 1.21 1.42 1.39 1.25 1.13 1.00 0.95 0.98 0.97 0.94 0.93 0.85 0.81 0.79 0.73 0.68 0.73 0.72 0.64 0.62 0.59 0.55 0.57 0.60 0.64 0.82 1.06 1.13 1.21 1.29 1.33 1.38 1.43 1.36
0.94 1.03 1.03 0.98 1.01 1.05 1.06 1.00 0.95 1.04 1.26 1.25 1.05 0.90 0.82 0.78 0.69 0.67 0.69 0.66 0.63 0.62 0.60 0.60 0.56 0.53 0.53 0.50 0.47 0.48 0.50 0.51 0.58 0.66 0.89 1.03 1.10 1.19 1.23 1.25 1.27 1.30 1.32